EHI
0 0 0 0 0 0 0 0 0 0 0 0 0 0 0 0 0 0 0 0 0 0 0 0 0 0 0 0 0 0 0 0 0 0 0 0 0 0 0 0 0 0 0 0
0 0 0 0 0 0 0 0 0 0 0 0 0 0 0 0 0 0 0 0 0 0 0 0 0 0 0 0 0 0 0 0 0 0 0 0 0 0 0 0 0 0 0 0
0 0 0 0 0 0 0 0 0 0 0 0 0 0 0 0 0 0 0 0 0 0 0 0 0 0 0 0 0 0 0 0 0 0 0 0 0 0 0 0 0 0 0 0
0 0 0 0 0 0 0 0 0 0 0 0 0 0 0 0 0 0 0 0 0 0 0 0 0 0 0 0 0 0 0 0 0 0 0 0 0 0 0 0 0 0 0 0
0 0 0 0 0 0 0 0 0 0 0 0 0 0 0 0 0 0 0 0 0 0 0 0 0 0 0 0 0 0 0 0 0 0 0 0 0 0 0 0 0 0 0 0
0 0 0 0 0 0 0 0 0 0 0 0 0 0 0 0 0 0 0 0 0 0 0 0 0 0 0 0 0 0 0 0 0 0 0 0 0 0 0 0 0 0 0 0
0 0 0 0 0 0 0 0 0 0 0 0 0 0 0 0 0 0 0 0 0 0 0 0 0 0 0 0 0 0 0 0 0 0 0 0 0 0 0 0 0 0 0 0
0 0 0 0 0 0 0 0 0 0 0 0 0 0 0 0 0 0 0 0 0 0 0 0 0 0 0 0 0 0 0 0 0 0 0 0 0 0 0 0 0 0 0 0
0 0 0 0 0 0 0 0 0 0 0 0 0 0 0 0 0 0 0 0 0 0 0 0 0 0 0 0 0 0 0 0 0 0 0 0 0 0 0 0 0 0 0 0
0 0 0 0 0 0 0 0 0 0 0 0 0 0 0 0 0 0 0 0 0 0 0 0 0 0 0 0 0 0 0 0 0 0 0 0 0 0 0 0 0 0 0 0
0 0 0 0 0 0 0 0 0 0 0 0 0 0 0 0 0 0 0 0 0 0 0 0 0 0 0 0 0 0 0 0 0 0 0 0 0 0 0 0 0 0 0 0
0 0 0 0 0 0 0 0 0 0 0 0 0 0 0 0 0 0 0 0 0 0 0 0 0 0 0 0 0 0 0 0 0 0 0 0 0 0 0 0 0 0 0 0
0 0 0 0 0 0 0 0 0 0 0 0 0 0 0 0 0 0 0 0 0 0 0 0 0 0 0 0 0 0 0 0 0 0 0 0 0 0 0 0 0 0 0 0
0 0 0 0 0 0 0 0 0 0 0 0 0 0 0 0 0 0 0 0 0 0 0 0 0 0 0 0 0 0 0 0 0 0 0 0 0 0 0 0 0 0 0 0
0 0 0 0 0 0 0 0 0 0 0 0 0 0 0 0 0 0 0 0 0 0 0 0 0 0 0 0 0 0 0 0 0 0 0 0 0 0 0 0 0 0 0 0
0 0 0 0 0 0 0 0 0 0 0 0 0 0 0 0 0 0 0 0 0 0 0 0 0 0 0 0 0 0 0 0 0 0 0 0 0 0 0 0 0 0 0 0
0 0 0 0 0 0 0 0 0 0 0 0 0 0 0 0 0 0 0 0 0 0 0 0 0 0 0 0 0 0 0 0 0 0 0 0 0 0 0 0 0 0 0 0
0 0 0 0 0 0 0 0 0 0 0 0 0 0 0 0 0 0 0 0 0 0 0 0 0 0 0 0 0 0 0 0 0 0 0 0 0 0 0 0 0 0 0 0
0 0 0 0 0 0 0 0 0 0 0 0 0 0 0 0 0 0 0 0 0 0 0 0 0 0 0 0 0 0 0 0 0 0 0 0 0 0 0 0 0 0 0 0
0 0 0 0 0 0 0 0 0 0 0 0 0 0 0 0 0 0 0 0 0 0 0 0 0 0 0 0 0 0 0 0 0 0 0 0 0 0 0 0 0 0 0 0
0 0 0 0 0 0 0 0 0 0 0 0 0 0 0 0 0 0 0 0 0 0 0 0 0 0 0 0 0 0 0 0 0 0 0 0 0 0 0 0 0 0 0 0
0 0 0 0 0 0 0 0 0 0 0 0 0 0 0 0 0 0 0 0 0 0 0 0 0 0 0 0 0 0 0 0 0 0 0 0 0 0 0 0 0 0 0 0
0 0 0 0 0 0 0 0 0 0 0 0 0 0 0 0 0 0 0 0 0 0 0 0 0 0 0 0 0 0 0 0 0 0 0 0 0 0 0 0 0 0 0 0
0 0 0 0 0 0 0 0 0 0 0 0 0 0 0 0 0 0 0 0 0 0 0 0 0 0 0 0 0 0 0 0 0 0 0 0 0 0 0 0 0 0 0 0
0 0 0 0 0 0 0 0 0 0 0 0 0 0 0 0 0 0 0 0 0 0 0 0 0 0 0 0 0 0 0 0 0 0 0 0 0 0 0 0 0 0 0 0
0 0 0 0 0 0 0 0 0 0 0 0 0 0 0 0 0 0 0 0 0 0 0 0 0 0 0 0 0 0 0 0 0 0 0 0 0 0 0 0 0 0 0 0
0 0 0 0 0 0 0 0 0 0 0 0 0 0 0 0 0 0 0 0 0 0 0 0 0 0 0 0 0 0 0 0 0 0 0 0 0 0 0 0 0 0 0 0
Wind_Speed
1 1 1 1 2 2 3 4 5 3 3 3 3 3 3 4 5 6 6 7 6 6 5 5 5 4 3 3 2 2 3 4 4 4 5 5 6 6 6 6 6 6 6 5
2 3 1 2 3 3 3 3 3 2 3 2 2 1 3 4 4 5 6 7 7 7 6 6 5 5 4 4 3 2 3 4 4 5 5 6 6 6 6 6 6 6 6 5
1 3 3 4 4 4 3 2 4 5 4 1 1 2 2 3 4 4 5 6 7 7 7 7 6 5 5 4 3 2 3 3 4 5 6 6 7 7 7 6 6 6 5 5
1 2 3 5 1 2 3 1 2 1 1 1 2 1 1 1 3 4 6 7 7 7 8 7 5 5 4 3 2 3 3 4 4 5 5 6 6 7 6 5 5 5 5 5
2 0 6 5 1 2 2 2 1 2 1 2 2 1 2 2 3 3 5 5 6 6 7 7 7 6 4 3 3 3 4 4 5 5 6 7 7 7 6 5 5 5 5 6
3 2 5 4 1 1 2 3 1 1 0 1 2 1 3 3 4 5 5 5 6 6 6 7 7 5 4 4 3 4 4 4 4 5 7 8 8 6 5 5 5 6 5 5
3 3 7 4 2 2 3 4 1 1 1 0 1 3 4 5 5 5 5 5 6 6 6 6 7 5 5 4 5 5 3 3 4 5 6 6 6 5 5 5 5 5 5 5
5 5 8 2 3 5 4 1 2 1 0 1 2 4 4 5 5 6 6 6 6 6 6 6 6 5 5 6 5 4 3 3 4 4 4 4 6 5 6 6 6 6 5 4
8 7 2 2 3 2 3 2 2 1 1 1 3 4 5 5 5 6 6 6 5 5 7 6 5 4 5 6 5 4 3 3 3 3 3 4 6 6 6 6 5 5 5 5
3 5 3 3 2 2 2 2 2 1 1 1 3 4 5 5 5 6 6 6 5 6 6 7 6 5 5 5 4 3 3 3 2 3 3 4 4 5 6 6 6 6 6 5
4 3 2 3 5 4 3 2 1 1 1 2 3 5 5 5 6 6 6 5 5 6 6 7 7 7 6 5 4 3 3 2 2 3 4 4 5 5 6 6 7 7 6 6
8 7 7 5 5 6 4 3 2 1 2 3 3 5 5 6 6 6 6 6 6 6 6 7 6 7 6 5 3 3 3 2 2 2 3 3 3 3 7 7 10 11 9 8
4 4 4 3 4 5 4 3 2 2 3 3 3 4 5 5 5 6 6 6 6 7 7 7 7 6 5 5 4 3 4 3 2 2 3 3 3 4 3 5 9 11 12 13
4 5 3 4 4 4 3 2 1 2 2 3 3 4 5 5 6 6 6 6 7 7 7 6 6 6 5 5 4 4 4 4 3 3 3 3 3 4 3 3 3 4 7 12
5 4 4 4 3 3 2 1 1 2 3 3 3 4 5 6 7 7 7 6 6 6 6 6 6 6 5 4 4 4 4 3 3 3 3 3 3 3 4 4 4 3 2 4
5 4 4 4 4 3 3 3 3 4 4 4 4 5 5 6 6 6 6 5 6 7 7 6 7 6 5 5 5 4 4 5 4 3 3 3 3 3 4 4 4 4 4 4
8 6 5 5 5 4 4 4 4 4 4 5 5 5 5 5 6 7 6 6 6 7 6 6 7 6 5 4 4 3 3 4 5 3 3 3 3 3 3 4 4 4 4 4
7 7 6 6 5 5 4 4 4 4 5 5 5 5 5 5 7 7 7 6 6 7 6 6 6 5 5 4 4 3 3 3 3 3 3 3 3 3 3 3 3 4 3 3
5 5 5 5 4 4 4 4 4 4 4 4 4 5 6 6 6 7 6 6 7 8 7 5 7 5 5 5 5 3 3 3 3 3 3 4 3 2 2 3 3 3 2 2
5 4 4 3 3 3 3 3 3 4 4 4 4 5 6 6 6 6 6 6 6 6 6 7 6 5 5 5 5 3 3 3 3 3 3 3 3 2 2 2 2 2 2 2
5 4 4 3 2 2 3 3 3 4 4 4 5 6 7 7 6 5 5 7 6 5 6 8 5 4 4 4 5 3 3 3 3 3 3 3 2 2 2 2 2 2 2 1
4 4 4 3 2 2 2 2 3 4 5 5 5 6 6 7 6 6 6 6 6 8 5 4 4 6 7 6 3 3 3 3 3 2 2 2 2 2 2 2 2 2 1 1
4 3 3 2 2 2 2 2 3 3 4 5 6 6 6 6 5 5 7 4 4 8 6 4 7 10 10 4 2 3 3 3 3 2 2 2 2 2 2 2 2 2 2 1
3 2 2 1 1 1 3 3 3 3 4 5 5 6 5 5 5 4 5 9 11 10 6 7 11 11 9 3 3 3 3 3 3 3 3 2 2 2 2 2 2 2 2 2
3 2 2 1 1 2 3 3 4 4 4 4 5 5 4 3 5 5 5 6 10 10 6 7 11 11 6 3 3 3 3 3 3 3 3 2 2 2 2 2 2 2 2 2
2 2 1 2 2 2 2 2 2 3 4 5 5 4 3 3 4 5 5 6 7 9 6 4 5 6 4 3 3 3 3 3 4 3 3 3 3 3 3 3 3 3 3 3
2 1 0 0 1 1 1 2 3 4 4 4 6 5 4 4 4 5 5 5 5 5 5 4 4 4 4 3 3 3 3 3 3 3 3 3 3 3 3 3 3 3 3 3
Wind_Direction
253 293 212 225 220 182 178 185 188 219 230 285 319 331 339 357 7 17 10 4 359 348 338 338 336 330 318 299 272 203 179 184 190 172 156 149 148 146 142 142 144 142 139 142
5 0 332 276 251 217 218 207 211 229 265 279 294 353 16 13 14 10 359 353 349 345 339 331 323 314 304 287 268 218 202 205 183 165 162 160 156 150 146 145 142 143 149 151
320 328 11 293 250 202 195 192 181 205 230 288 332 347 346 350 3 352 342 338 337 334 327 317 310 302 294 286 274 232 218 207 183 176 175 172 162 157 160 159 154 155 158 161
87 40 250 254 319 170 161 190 195 196 249 272 265 281 314 350 0 345 338 333 329 325 323 319 310 302 293 288 269 244 230 216 196 184 182 172 167 171 169 161 165 165 168 174
114 226 283 289 269 155 162 251 216 199 290 349 354 19 340 360 3 334 324 319 316 315 312 316 317 311 303 295 276 253 240 227 207 190 184 180 183 181 171 166 172 171 172 177
131 187 249 254 213 172 116 271 234 141 120 1 39 350 290 333 338 329 327 324 322 322 324 326 322 316 305 293 279 262 253 238 212 194 191 193 192 181 170 171 177 172 181 187
164 229 264 252 251 122 166 246 128 125 121 101 213 239 280 313 318 317 315 317 321 324 325 320 319 319 306 297 283 277 269 242 211 202 201 194 182 173 167 168 168 176 186 193
167 207 252 219 139 174 202 145 120 127 157 251 276 294 307 314 316 320 321 321 323 324 319 317 321 320 310 300 294 287 268 242 220 206 196 181 173 171 168 168 173 183 189 200
192 210 225 181 177 171 148 149 168 185 260 277 293 299 306 308 311 314 315 315 315 313 313 314 319 318 305 301 303 295 280 256 231 201 188 176 176 176 173 179 185 191 195 206
228 245 222 207 180 160 158 168 183 203 235 257 279 289 298 301 305 308 307 308 310 311 311 312 317 316 300 301 301 290 278 267 231 199 190 182 184 184 186 190 194 196 201 209
232 241 211 227 205 186 170 161 174 249 270 275 282 289 292 297 297 297 300 301 303 304 304 307 313 314 312 310 307 294 281 261 233 211 201 200 201 202 202 206 201 198 202 199
210 203 185 208 193 175 173 195 211 247 289 294 281 285 295 294 293 294 298 302 304 304 302 305 308 308 311 310 302 291 284 266 240 221 212 209 209 220 222 222 225 225 217 208
185 164 167 169 160 167 180 201 215 235 259 285 293 290 295 297 298 298 299 301 303 303 304 305 306 304 308 309 304 289 278 272 253 232 221 216 213 216 231 234 234 236 233 231
163 132 144 176 184 186 186 195 213 256 268 273 284 296 298 298 304 304 303 304 304 301 301 302 303 304 309 309 302 291 282 272 262 246 234 227 222 221 221 225 231 236 235 237
186 177 174 170 160 168 174 181 239 268 276 286 287 294 300 301 302 302 304 308 308 303 299 300 302 304 311 308 300 290 284 278 268 256 242 235 229 225 226 227 232 236 232 239
167 156 152 162 184 196 200 215 238 260 271 280 287 290 291 291 293 297 301 305 304 301 299 299 297 301 307 302 298 292 283 281 281 269 253 245 238 232 229 229 230 232 234 231
152 173 184 197 210 218 221 225 233 251 267 276 279 287 292 295 297 297 298 298 290 287 288 287 290 297 299 295 292 290 287 286 284 281 267 256 249 244 239 233 232 234 237 232
181 180 178 183 195 214 230 235 242 252 259 267 279 284 285 287 291 295 299 302 301 296 288 280 284 292 292 292 289 284 282 278 273 269 269 266 262 254 250 243 241 242 245 246
174 174 180 189 194 203 224 240 248 254 264 270 274 277 276 277 281 289 296 300 300 298 298 293 297 295 289 288 292 281 282 285 283 277 272 278 278 260 254 252 249 243 241 235
165 169 177 189 192 201 232 249 256 264 267 268 274 280 283 283 283 288 290 283 273 270 283 292 292 283 280 281 285 271 274 278 281 284 280 270 268 268 263 261 259 256 250 244
168 173 180 193 217 234 242 252 262 272 279 273 268 274 280 284 285 284 287 289 285 278 283 291 289 283 280 282 282 268 267 272 273 275 278 278 279 279 278 279 281 277 270 267
167 176 190 198 219 257 264 262 264 276 286 284 279 279 285 288 288 283 267 264 280 296 296 281 279 287 293 292 273 269 269 270 271 271 272 272 271 274 278 280 279 281 275 265
163 173 184 200 226 258 282 275 272 277 281 284 285 283 281 280 280 282 290 284 286 297 296 278 285 292 296 287 258 256 263 265 265 267 268 269 268 267 268 273 273 275 268 262
151 158 169 165 160 265 283 288 290 284 281 282 277 275 277 286 285 262 265 293 302 302 293 292 299 299 298 279 258 255 256 258 259 259 258 256 254 255 259 263 266 267 267 271
145 148 149 161 228 257 274 295 302 295 293 289 286 283 274 262 271 290 292 290 297 303 296 297 301 301 295 272 259 256 255 252 251 248 241 245 249 252 256 259 261 264 264 261
141 156 187 214 233 255 274 286 291 296 301 303 304 297 293 289 284 288 293 294 295 301 298 292 293 294 285 276 266 260 256 265 274 263 245 243 244 245 247 250 255 254 257 258
116 117 134 277 274 268 278 281 287 295 298 299 302 304 307 307 304 302 302 302 301 299 294 291 288 283 279 275 271 264 257 253 250 248 244 240 239 240 244 247 250 251 253 254